Weather Roundup
Issued by NWS Corpus Christi, TX

Home | Current Version | Previous Version | Text Only | Print | Product List | Glossary On
Versions: 1 2 3 4 5 6 7 8 9 10 11 12 13 14 15 16 17 18 19 20 21 22 23 24 25 26 27 28 29 30 31 32 33 34 35 36 37 38 39 40 41 42 43 44 45 46 47 48 49 50
000
ASUS44 KCRP 012010
HRRCRP

SOUTH TEXAS REGIONAL WEATHER ROUNDUP
NATIONAL WEATHER SERVICE CORPUS CHRISTI TX
200 PM CST SUN FEB 01 2015


TXZ229>244-012100-
...CORPUS CHRISTI AREA OBSERVATIONS...

CITY           SKY/WX    TMP DP  RH WIND       PRES   REMARKS
CORPUS CHRISTI PTSUNNY   78  59  51 SW10G17   29.88F
NAS CORPUS CHR MOSUNNY   72  63  73 SE12      29.89F
ROCKPORT       MOSUNNY   72  62  71 SE10      29.89F
KINGSVILLE NAS PTSUNNY   79  62  56 VRB5      29.89F
ALICE          MOSUNNY   79  59  50 CALM      29.87F
FALFURRIAS     PTSUNNY   79  58  49 NW3       29.88F
$$

...VICTORIA AREA OBSERVATIONS...

CITY           SKY/WX    TMP DP  RH WIND       PRES   REMARKS
VICTORIA       CLOUDY    77  61  57 SW10      29.89F
BEEVILLE       FAIR      76  60  57 N5        29.89F
PLEASANTON     PTSUNNY   69  59  69 CALM      29.91F
SAN ANTONIO    PTSUNNY   76  55  48 N13G18    29.90F
$$

...LAREDO AREA OBSERVATIONS...

CITY           SKY/WX    TMP DP  RH WIND       PRES   REMARKS
LAREDO         CLOUDY    72  58  61 NW12      29.94F
COTULLA        CLOUDY    69  59  70 NW8       29.92F
DEL RIO        MOSUNNY   74  48  39 NW15      29.93F
MCALLEN        CLOUDY    77  60  55 S7        29.89F
HEBBRONVILLE   PTSUNNY   76  58  52 NW8       29.90F
$$

...OTHER TEXAS OBSERVATIONS...

CITY           SKY/WX    TMP DP  RH WIND       PRES   REMARKS
BROWNSVILLE    CLOUDY    76  61  59 S17G24    29.89F
HOUSTON        CLOUDY    75  60  59 W12G21    29.88F
COL. STATION   MOSUNNY   74  57  55 NW18G24   29.89F
AUSTIN         PTSUNNY   73  55  53 NW14G22   29.91F
WACO           CLOUDY    56  48  74 N17       30.00R
FORT WORTH     MOSUNNY   54  36  50 NW24      30.01R
WICHITA FALLS  PTSUNNY   43  28  55 NW24      30.12S
LUBBOCK        PTSUNNY   45  32  60 N13G25    30.12F
EL PASO        MOSUNNY   57  40  52 N12       30.07F
$$

...MARINE OBSERVATIONS...

STATION/POSITION TIME  SKY/WX   TEMP    WIND        PRES    VSBY  WAVE   SWELL
                                AIR SEA DIR/SP/G                  HT/PER HT/PER
                 (UTC)          (F)     (DEG/KT/KT) (MB)    (MI)  (FT/S) (FT/S)
PORT ARANSAS     2000            63 61  130/  9/  9 1012.9F
BUOY 90 E PORT A 2000            70 68  210/  6/  8 1013.1F         4/ 6   3/ 6
BUOY 45 SE BAFFI 2000            65 63  190/  4/  6 1012.4F         4/ 6   3/ 6
BUOY 200 E PT IS 2000            72 72  180/ 14/ 17 1013.2F         5/ 6   2/11
BUOY 15 E GALVES 2000            62 60  190/  8/  8 1012.2F         3/ 6   3/ 6
$$



USA.gov is the U.S. government's official web portal to all federal, state and local government web resources and services.